TimeCST,TemperatureF,Dew PointF,Humidity,Sea Level PressureIn,VisibilityMPH,Wind Direction,Wind SpeedMPH,Gust SpeedMPH,PrecipitationIn,Events,Conditions,WindDirDegrees,DateUTC
12:53 AM,28.0,21.9,78,30.08,10.0,NNE,20.7,27.6,N/A,,Overcast,20,2013-02-28 06:53:00
1:45 AM,28.4,21.2,74,30.05,10.0,NNE,17.3,-,N/A,,Overcast,20,2013-02-28 07:45:00
1:53 AM,28.0,21.0,75,30.09,10.0,NNE,16.1,-,N/A,,Overcast,30,2013-02-28 07:53:00
2:53 AM,27.0,21.0,78,30.10,10.0,North,16.1,-,N/A,,Overcast,10,2013-02-28 08:53:00
3:53 AM,26.1,21.9,84,30.12,10.0,NNE,15.0,-,N/A,,Overcast,20,2013-02-28 09:53:00
4:53 AM,26.1,21.9,84,30.13,10.0,NNE,16.1,24.2,N/A,,Overcast,20,2013-02-28 10:53:00
6:53 AM,26.1,19.9,78,30.17,10.0,NNE,17.3,-,N/A,,Overcast,30,2013-02-28 12:53:00
8:53 AM,25.0,19.9,81,30.20,10.0,NNE,16.1,-,N/A,,Overcast,20,2013-02-28 14:53:00
9:53 AM,25.0,19.9,81,30.20,2.0,NNE,15.0,-,0.00,Snow,Light Snow,30,2013-02-28 15:53:00
10:00 AM,24.8,19.4,80,30.17,1.2,NNE,15.0,-,0.00,Snow,Light Snow,30,2013-02-28 16:00:00
10:04 AM,24.8,19.4,80,30.17,3.0,NNE,13.8,-,0.00,Snow,Light Snow,30,2013-02-28 16:04:00
10:53 AM,25.0,18.0,75,30.22,-9999.0,NE,16.1,26.5,0.00,,Overcast,40,2013-02-28 16:53:00
11:53 AM,25.0,19.0,78,30.24,8.0,NE,18.4,-,0.00,,Overcast,40,2013-02-28 17:53:00
12:53 PM,25.0,19.0,78,30.24,6.0,NE,19.6,27.6,N/A,,Haze,40,2013-02-28 18:53:00
1:53 PM,24.1,18.0,77,30.25,7.0,NE,18.4,24.2,N/A,,Overcast,40,2013-02-28 19:53:00
2:53 PM,24.1,17.1,75,30.26,5.0,NE,18.4,25.3,N/A,,Haze,40,2013-02-28 20:53:00
3:53 PM,24.1,16.0,71,30.27,10.0,NE,17.3,23.0,N/A,,Overcast,50,2013-02-28 21:53:00
4:53 PM,23.0,16.0,74,30.29,10.0,ENE,13.8,-,N/A,,Overcast,60,2013-02-28 22:53:00
6:53 PM,24.1,17.1,75,30.31,10.0,NE,13.8,-,N/A,,Overcast,40,2013-03-01 00:53:00
7:53 PM,23.0,17.1,78,30.32,10.0,ENE,10.4,-,0.00,,Overcast,70,2013-03-01 01:53:00
8:53 PM,23.0,16.0,74,30.32,10.0,ENE,11.5,-,N/A,,Overcast,60,2013-03-01 02:53:00
9:53 PM,24.1,15.1,69,30.32,10.0,NE,15.0,-,N/A,,Overcast,50,2013-03-01 03:53:00
10:53 PM,24.1,14.0,65,30.33,10.0,ENE,16.1,-,N/A,,Overcast,60,2013-03-01 04:53:00
11:53 PM,23.0,16.0,74,30.33,10.0,NE,16.1,-,0.00,,Overcast,50,2013-03-01 05:53:00